STARLINK-35547, 66119

Orbit data source: Space-Track

STARLINK-35547, 66119 is a payload satellite owned by SpaceX/Seattle (US) in LEO that was launched on Wed, 22 Oct 2025 UTC via an FALCON 9 launch vehicle from the Air Force Western Test Range (AFWTR). Payload-class satellites include a variety of spacecraft equipped with specific instruments for various scientific and technological missions. These include communications satellites like Starlink; space stations such as the ISS; scientific satellites like the Hubble; Earth observation satellites from companies like Planet Labs, Umbra, and HawkEye 360; GPS; miniature CubeSats for education and research; and military/defense satellites.

Loading next visibility...
Identifier
66119, 2025-237F
Orbit
LEO
Country
Flag of USUS
Related business
Manufacturer
SpaceX/Seattle
Mission
Operational spacecraft
Bus & Motor
STARLINK V2MO, Unknown motor
Mass
575 kg wet, ~530 kg dry
Launch date (UTC)
2025-10-22 (2 weeks ago)
Launch vehicle
FALCON 9
Launch site
Air Force Western Test Range (AFWTR)
Object type
Payload
Rocket body
Debris
Shape & HBR
Unknown shape, 17.7 m
Radar Cross Section
RCS unknown

Expand to show TLE details & history
Last TLE update: 16 hours ago

TLE from 16 hours ago
0 STARLINK-35547
1 66119U 25237F   25311.25001157 -.01941407  00000-0 -15329-1 0  9994
2 66119  53.1597 255.9536 0001187  53.6750  82.8227 15.74136127  3776
Epoch: 2025-11-07T06:00Z
TLE epoch observation values (Epoch: 2025-11-07T06:00:00.999Z)
Latitude
33.53026°
Longitude
-90.32857°
Altitude
349.295 km
Speed
7.704 km/s
True Right ascension
03h 05m 29s
True Declination
33° 21' 45"
Sunlit
Object was in full shadow at epoch
Visualization orbit readout
Latitude
Unknown
Longitude
Unknown
Altitude
Unknown
Speed
Unknown
Apparent Right ascension
Unknown
Apparent Declination
Unknown
Sunlit
N/A
Visualization observer readout
Local Sidereal Time
17:46:17
Azimuth
Unknown
Elevation
Unknown
Doppler factor
Unknown
Orbital elements
Apogee altitude
348.15 km
Perigee altitude
346.553 km
Semi-major axis
6,725.489 km
Eccentricity
0.00012
Inclination
53.1597°
RAAN
255.9536°
Arg. of periapsis
53.675°
True anomaly
82.8362°
Mean anomaly
82.8227°
Eccentric anomaly
82.82945°
Mean motion
3.93511 °/min
Orbital period
91.48 mins
BSTAR
-0.015329
Loading maneuver chart data...
Computing Atmospheric mass density...
Loading historical data...
Loading historical data...
Loading historical data...
Loading historical data...
Loading historical data...
Loading historical data...
Loading historical data...

Documentation

Showing up to 5 results
|